1530320400.5,3341,16.81,73430.5,3.45,2.69,2.69,0,*4A
1530320401.75,3342,16.81,73408.3,3.45,2.73,2.73,0,*49
1530320402.99,3343,16.81,73402.5,3.45,2.73,2.73,0,*48
1530320404.21,3344,16.81,73424.8,3.43,2.69,2.73,0,*42
1530320405.46,3345,16.81,73428.5,3.45,2.77,2.77,0,*4E
1530320406.7,3346,16.81,73422.0,3.45,2.77,2.85,0,*40
1530320407.96,3347,16.81,73436.8,3.49,2.81,2.89,0,*48
1530320409.21,3348,16.81,73442.3,3.49,2.89,2.89,0,*4F
1530320410.47,3349,16.81,73452.3,3.49,2.89,2.89,0,*4E
1530320411.7,3350,16.81,73450.3,3.49,2.91,2.89,0,*4F
1530320412.95,3351,16.81,73426.5,3.49,2.81,2.81,0,*47
1530320414.21,3352,16.81,73424.0,3.49,2.77,2.77,0,*44
1530320415.42,3353,16.81,73420.8,3.51,2.85,2.85,0,*4C
1530320416.65,3354,16.81,73426.5,3.51,2.81,2.85,0,*4F
1530320417.9,3355,16.81,73420.5,3.49,2.89,2.89,0,*43
1530320419.1,3356,16.81,73420.5,3.49,2.91,2.91,0,*40
1530320420.36,3357,16.81,73420.0,3.49,2.89,2.81,0,*49
1530320421.61,3358,16.81,73426.0,3.49,2.89,2.89,0,*4E
1530320422.86,3359,16.81,73432.3,3.49,2.89,2.89,0,*4F
1530320424.12,3360,16.81,73424.5,3.49,2.81,2.81,0,*45
1530320425.37,3361,16.81,73436.5,3.49,2.89,2.89,0,*44
1530320426.55,3362,16.81,73440.5,3.51,2.91,2.91,0,*4E
1530320427.81,3363,16.81,73424.3,3.49,2.81,2.81,0,*46
1530320429.05,3364,16.81,73414.8,3.49,2.73,2.73,0,*41
1530320430.27,3365,16.81,73412.8,3.51,2.69,2.69,0,*49
1530320431.52,3366,16.81,73420.3,3.49,2.73,2.73,0,*43
1530320432.73,3367,16.81,73424.5,3.51,2.59,2.65,0,*44
1530320433.96,3368,16.81,73404.8,3.49,2.65,2.73,0,*4A
1530320435.16,3369,16.81,73408.3,3.49,2.61,2.65,0,*48
1530320436.37,3370,16.81,73412.0,3.49,2.61,2.61,0,*44
1530320437.61,3371,16.81,73424.0,3.45,2.69,2.69,0,*49
1530320438.87,3372,16.81,73438.5,3.49,2.89,2.81,0,*4E
1530320440.12,3373,16.81,73414.0,3.49,2.89,2.81,0,*4F
1530320441.37,3374,16.81,73414.5,3.49,2.77,2.81,0,*49
1530320442.63,3375,16.81,73412.0,3.49,2.81,2.89,0,*49
1530320443.88,3376,16.81,73412.8,3.49,2.89,2.81,0,*4A
1530320445.14,3377,16.81,73408.5,3.49,2.81,2.81,0,*43
1530320446.39,3378,16.81,73416.0,3.49,2.89,2.77,0,*4D
1530320447.64,3379,16.81,73414.0,3.49,2.77,2.77,0,*4D
1530320448.9,3380,16.81,73428.3,3.49,2.81,2.81,0,*4B
1530320450.16,3381,16.81,73426.3,3.49,2.81,2.89,0,*42
1530320451.39,3382,16.81,73420.3,3.49,2.91,2.89,0,*40
1530320452.61,3383,16.81,73424.0,3.49,2.89,2.91,0,*41
1530320453.84,3384,16.81,73416.5,3.49,2.91,2.89,0,*46
1530320455.1,3385,16.81,73420.8,3.49,2.89,2.81,0,*46
1530320456.3,3386,16.81,73424.8,3.49,2.91,2.91,0,*4D
1530320457.47,3387,16.81,73428.0,3.51,2.95,2.91,0,*41
1530320458.68,3388,16.81,73426.3,3.49,2.91,2.91,0,*43
1530320459.85,3389,16.81,73426.3,3.51,2.95,2.95,0,*4B
1530320461.05,3390,16.81,73418.0,3.51,2.85,2.91,0,*46
1530320462.24,3391,16.81,73406.5,3.51,2.85,2.95,0,*43
1530320463.47,3392,16.81,73410.3,3.51,2.89,2.89,0,*41
1530320464.69,3393,16.81,73418.0,3.51,2.81,2.85,0,*44
1530320465.95,3394,16.81,73416.8,3.49,2.81,2.89,0,*46
1530320467.12,3395,16.81,73420.3,3.51,2.91,2.95,0,*42
1530320468.34,3396,16.81,73428.3,3.49,2.89,2.91,0,*45
1530320469.55,3397,16.81,73446.3,3.49,2.91,2.91,0,*4D
1530320470.72,3398,16.81,73430.8,3.51,2.91,2.91,0,*4B
1530320471.93,3399,16.81,73424.3,3.49,2.91,2.91,0,*43
1530320473.1,3400,16.81,73400.0,3.51,2.91,2.91,0,*4D
1530320474.3,3401,16.81,73394.3,3.49,2.91,2.91,0,*45
1530320475.53,3402,16.81,73414.0,3.53,2.85,2.91,0,*48
1530320476.72,3403,16.81,73404.0,3.51,2.85,2.91,0,*4B
1530320477.98,3404,16.81,73396.5,3.49,2.81,2.89,0,*48
1530320479.2,3405,16.81,73400.8,3.51,2.85,2.85,0,*48
1530320480.37,3406,16.81,73392.3,3.51,2.91,2.91,0,*4B
1530320481.63,3407,16.81,73402.3,3.49,2.89,2.81,0,*4B
1530320482.88,3408,16.81,73420.3,3.49,2.81,2.81,0,*4C
1530320484.12,3409,16.81,73404.8,3.51,2.81,2.81,0,*44
1530320485.33,3410,16.81,73398.3,3.51,2.85,2.85,0,*4C
1530320486.59,3411,16.81,73398.0,3.49,2.89,2.89,0,*44
1530320487.84,3412,16.81,73410.0,3.49,2.81,2.81,0,*47
1530320489.06,3413,16.81,73422.5,3.51,2.85,2.85,0,*4F
1530320490.29,3414,16.81,73412.5,3.51,2.81,2.81,0,*48
1530320491.52,3415,16.81,73426.5,3.49,2.89,2.91,0,*49
1530320492.69,3416,16.81,73438.5,3.51,2.91,2.91,0,*4A
1530320493.89,3417,16.81,73416.3,3.51,2.91,2.85,0,*4E
1530320495.15,3418,16.81,73408.8,3.49,2.89,2.81,0,*45
1530320496.4,3419,16.81,73426.0,3.49,2.81,2.81,0,*4C
1530320497.63,3420,16.81,73418.5,3.49,2.89,2.91,0,*4F
1530320498.8,3421,16.81,73418.3,3.51,2.91,2.91,0,*4E
1530320499.98,3422,16.81,73414.5,3.51,2.95,2.91,0,*49
1530320501.21,3423,16.81,73426.8,3.49,2.91,2.89,0,*4C
1530320502.41,3424,16.81,73426.8,3.53,2.91,2.95,0,*4D
1530320503.61,3425,16.81,73410.5,3.51,2.85,2.95,0,*4B
1530320504.78,3426,16.81,73402.5,3.51,2.91,2.95,0,*4D
1530320505.96,3427,16.81,73390.0,3.51,2.91,2.91,0,*48
1530320507.22,3428,16.81,73384.8,3.49,2.81,2.81,0,*4E
1530320508.45,3429,16.81,73390.3,3.51,2.81,2.81,0,*46
1530320509.66,3430,16.81,73388.8,3.51,2.85,2.85,0,*4E
1530320510.88,3431,16.81,73396.5,3.51,2.85,2.85,0,*4F
1530320512.14,3432,16.81,73426.8,3.49,2.89,2.89,0,*45
1530320513.36,3433,16.81,73416.8,3.51,2.81,2.85,0,*49
1530320514.58,3434,16.81,73366.8,3.51,2.69,2.77,0,*45
1530320515.8,3435,16.81,73372.0,3.51,2.77,2.69,0,*44
1530320517.03,3436,16.81,73372.5,3.49,2.73,2.65,0,*46
1530320518.28,3437,16.81,73344.8,3.49,2.73,2.77,0,*44
1530320519.5,3438,16.81,73380.0,3.51,2.77,2.77,0,*46
1530320520.75,3439,16.81,73378.3,3.49,2.73,2.73,0,*4E
1530320522.0,3440,16.81,73378.0,3.49,2.77,2.77,0,*40
1530320523.26,3441,16.81,73392.0,3.49,2.81,2.81,0,*41
1530320524.48,3442,16.81,73404.5,3.51,2.85,2.81,0,*4F
1530320525.7,3443,16.81,73386.5,3.51,2.85,2.85,0,*4A
1530320526.93,3444,16.81,73382.3,3.51,2.81,2.85,0,*49
1530320528.18,3445,16.81,73394.5,3.53,2.81,2.85,0,*4A
1530320529.4,3446,16.81,73384.0,3.51,2.85,2.85,0,*4F
1530320530.64,3447,16.81,73378.8,3.49,2.73,2.73,0,*47
1530320531.86,3448,16.81,73382.8,3.51,2.85,2.85,0,*41
1530320533.09,3449,16.81,73394.3,3.51,2.81,2.85,0,*44
1530320534.31,3450,16.81,73394.5,3.51,2.69,2.69,0,*48
1530320535.51,3451,16.81,73392.5,3.51,2.69,2.65,0,*45
1530320536.74,3452,16.81,73392.3,3.49,2.61,2.73,0,*40
1530320537.94,3453,16.81,73398.3,3.49,2.61,2.61,0,*42
1530320539.19,3454,16.81,73402.0,3.49,2.73,2.73,0,*45
1530320540.44,3455,16.81,73396.0,3.49,2.81,2.73,0,*49
1530320541.65,3456,16.81,73396.0,3.49,2.61,2.65,0,*43
1530320542.86,3457,16.81,73400.5,3.49,2.65,2.65,0,*46
1530320544.11,3458,16.81,73388.5,3.49,2.73,2.73,0,*49
1530320545.35,3459,16.81,73396.0,3.49,2.73,2.73,0,*48
1530320546.61,3460,16.81,73386.5,3.49,2.77,2.81,0,*4B
1530320547.86,3461,16.81,73400.3,3.49,2.73,2.77,0,*47
1530320549.09,3462,16.81,73416.3,3.51,2.81,2.81,0,*49
1530320550.34,3463,16.81,73408.5,3.49,2.77,2.77,0,*41
1530320551.57,3464,16.81,73410.5,3.51,2.81,2.81,0,*4F
1530320552.82,3465,16.81,73426.5,3.49,2.81,2.89,0,*4F
1530320554.06,3466,16.81,73420.5,3.49,2.91,2.89,0,*4D
1530320555.23,3467,16.81,73428.0,3.51,2.91,2.95,0,*48
1530320556.4,3468,16.81,73422.3,3.51,2.95,2.91,0,*47
1530320557.64,3469,16.81,73420.8,3.49,2.91,2.89,0,*42
1530320558.89,3470,16.81,73422.0,3.49,2.89,2.89,0,*43
1530320560.15,3471,16.81,73422.3,3.49,2.81,2.89,0,*4A
1530320561.4,3472,16.81,73406.3,3.49,2.81,2.89,0,*49
1530320562.63,3473,16.81,73418.5,3.51,2.85,2.81,0,*4D
1530320563.86,3474,16.81,73394.8,3.51,2.81,2.81,0,*4E
1530320565.08,3475,16.81,73390.3,3.49,2.73,2.65,0,*41
1530320566.31,3476,16.81,73398.3,3.51,2.77,2.77,0,*4C
1530320567.56,3477,16.81,73410.5,3.49,2.73,2.73,0,*44
1530320568.8,3478,16.81,73428.5,3.49,2.73,2.77,0,*4F
1530320570.05,3479,16.81,73410.5,3.49,2.77,2.77,0,*4A
1530320571.31,3480,16.81,73408.8,3.49,2.77,2.77,0,*4C
1530320572.56,3481,16.81,73402.8,3.49,2.89,2.89,0,*4D
1530320573.81,3482,16.81,73408.3,3.45,2.85,2.89,0,*4E
1530320575.04,3483,16.81,73420.0,3.49,2.91,2.89,0,*46
1530320576.21,3484,16.81,73400.8,3.51,2.91,2.91,0,*41
1530320577.45,3485,16.81,73420.8,3.51,2.81,2.81,0,*40
1530320578.7,3486,16.81,73418.8,3.49,2.77,2.77,0,*4A
1530320579.95,3487,16.81,73410.5,3.49,2.77,2.77,0,*4B
1530320581.2,3488,16.81,73406.8,3.49,2.77,2.77,0,*44
1530320582.45,3489,16.81,73412.3,3.49,2.89,2.89,0,*45
1530320583.7,3490,16.81,73394.3,3.49,2.77,2.77,0,*4D
1530320584.95,3491,16.81,73402.0,3.49,2.77,2.77,0,*4C
1530320586.21,3492,16.81,73398.8,3.49,2.77,2.81,0,*46
1530320587.46,3493,16.81,73416.0,3.49,2.81,2.81,0,*4E
1530320588.71,3494,16.81,73412.0,3.49,2.77,2.73,0,*4D
1530320589.96,3495,16.81,73422.5,3.49,2.77,2.77,0,*48
1530320591.22,3496,16.81,73414.0,3.49,2.77,2.77,0,*4B
1530320592.44,3497,16.81,73410.5,3.49,2.73,2.65,0,*4D
1530320593.65,3498,16.81,73394.0,3.49,2.61,2.65,0,*41
1530320594.89,3499,16.81,73392.5,3.49,2.73,2.73,0,*44
1530320596.14,3500,16.81,73410.3,3.49,2.77,2.77,0,*45
1530320597.4,3501,16.81,73414.8,3.49,2.77,2.77,0,*44
1530320598.64,3502,16.81,73420.5,3.49,2.55,2.55,0,*47
1530320599.9,3503,16.81,73404.0,3.49,2.43,2.39,0,*4B
1530320601.12,3504,16.81,73404.8,3.43,2.39,2.47,0,*42
1530320602.36,3505,16.81,73424.0,3.45,2.69,2.69,0,*4C
1530320603.59,3506,16.81,73404.0,3.45,2.69,2.61,0,*47
1530320604.83,3507,16.81,73416.3,3.45,2.69,2.69,0,*4E
1530320606.08,3508,16.81,73414.8,3.45,2.69,2.69,0,*41
1530320607.33,3509,16.81,73414.8,3.45,2.77,2.73,0,*44
1530320608.53,3510,16.81,73400.5,3.45,2.61,2.61,0,*48
1530320609.77,3511,16.81,73398.8,3.45,2.69,2.69,0,*49
1530320611.02,3512,16.81,73386.0,3.45,2.69,2.69,0,*4A
1530320612.23,3513,16.81,73404.3,3.43,2.73,2.73,0,*4D
1530320613.45,3514,16.81,73402.3,3.43,2.73,2.77,0,*4E
1530320614.7,3515,16.81,73390.5,3.45,2.85,2.85,0,*4D
1530320615.94,3516,16.81,73396.5,3.45,2.89,2.85,0,*42
1530320617.19,3517,16.81,73388.8,3.45,2.85,2.89,0,*43
1530320618.43,3518,16.81,73406.3,3.45,2.89,2.85,0,*4C
1530320619.67,3519,16.75,73398.8,3.45,2.85,2.85,0,*41
1530320620.92,3520,16.81,73400.8,3.45,2.89,2.85,0,*47
1530320622.16,3521,16.81,73422.8,3.45,2.89,2.85,0,*46
1530320623.41,3522,16.81,73434.0,3.45,2.85,2.89,0,*45
1530320624.66,3523,16.81,73434.5,3.45,2.89,2.89,0,*48
1530320625.88,3524,16.81,73426.3,3.43,2.85,2.85,0,*49
1530320627.1,3525,16.81,73430.3,3.43,2.89,2.89,0,*48
1530320628.35,3526,16.81,73422.5,3.49,2.89,2.89,0,*41
1530320629.58,3527,16.81,73416.0,3.49,2.91,2.89,0,*49
1530320630.84,3528,16.81,73414.8,3.49,2.89,2.89,0,*4F
1530320632.09,3529,16.81,73410.3,3.49,2.89,2.89,0,*4E
1530320633.32,3530,16.81,73404.3,3.53,2.95,3.03,0,*43
1530320634.52,3531,16.81,73414.3,3.49,2.91,2.91,0,*47
1530320635.77,3532,16.81,73412.5,3.49,2.89,2.89,0,*44
1530320637.03,3533,16.81,73404.0,3.49,2.81,2.89,0,*4D
1530320638.28,3534,16.81,73396.0,3.49,2.89,2.89,0,*42
1530320639.54,3535,16.81,73386.8,3.49,2.81,2.89,0,*4B
1530320640.79,3536,16.81,73384.3,3.49,2.77,2.77,0,*40
1530320642.03,3537,16.81,73396.8,3.49,2.73,2.73,0,*41
1530320643.27,3538,16.81,73404.5,3.51,2.81,2.81,0,*47
1530320644.52,3539,16.75,73404.5,3.49,2.81,2.77,0,*46
1530320645.76,3540,16.81,73402.8,3.45,2.73,2.73,0,*4D
1530320647.01,3541,16.81,73396.3,3.49,2.73,2.73,0,*40
1530320648.26,3542,16.81,73404.5,3.49,2.73,2.73,0,*43
1530320649.52,3543,16.81,73402.5,3.49,2.81,2.81,0,*42
1530320650.77,3544,16.81,73404.0,3.49,2.77,2.81,0,*4C
1530320652.02,3545,16.81,73400.8,3.49,2.89,2.89,0,*44
1530320653.28,3546,16.81,73400.0,3.49,2.77,2.81,0,*4E
1530320654.53,3547,16.81,73398.3,3.49,2.81,2.77,0,*4F
1530320655.78,3548,16.81,73396.5,3.49,2.77,2.81,0,*40
1530320657.04,3549,16.81,73388.0,3.49,2.81,2.81,0,*48
1530320658.3,3550,16.81,73410.0,3.49,2.81,2.77,0,*49
1530320659.55,3551,16.81,73424.5,3.49,2.81,2.77,0,*48
1530320660.8,3552,16.81,73402.5,3.49,2.77,2.77,0,*42
1530320662.05,3553,16.81,73382.0,3.49,2.77,2.73,0,*47
1530320663.3,3554,16.81,73394.3,3.49,2.77,2.73,0,*40
1530320664.55,3555,16.81,73382.0,3.49,2.77,2.77,0,*45
1530320665.81,3556,16.81,73382.0,3.49,2.81,2.77,0,*4F
1530320667.06,3557,16.81,73372.3,3.49,2.77,2.73,0,*43
1530320668.31,3558,16.81,73382.3,3.49,2.77,2.77,0,*48
1530320669.56,3559,16.81,73374.8,3.49,2.77,2.77,0,*49
1530320670.79,3560,16.81,73376.8,3.49,2.65,2.73,0,*44
1530320672.04,3561,16.81,73390.5,3.49,2.73,2.73,0,*42
1530320673.28,3562,16.81,73398.5,3.49,2.73,2.73,0,*41
1530320674.54,3563,16.81,73404.0,3.49,2.81,2.89,0,*48
1530320675.76,3564,16.81,73444.8,3.49,2.89,2.91,0,*4E
1530320676.94,3565,16.81,73440.0,3.51,2.95,2.91,0,*4B
1530320678.19,3566,16.81,73426.0,3.49,2.89,2.89,0,*45
1530320679.44,3567,16.81,73396.5,3.49,2.77,2.77,0,*44
1530320680.69,3568,16.81,73408.5,3.49,2.77,2.77,0,*4B
1530320681.94,3569,16.81,73398.5,3.49,2.77,2.77,0,*4A
1530320683.2,3570,16.81,73402.3,3.49,2.81,2.77,0,*4B
1530320684.45,3571,16.81,73410.3,3.49,2.77,2.77,0,*43
1530320685.7,3572,16.81,73408.3,3.49,2.81,2.81,0,*40
1530320686.95,3573,16.75,73416.3,3.45,2.77,2.73,0,*49
1530320688.2,3574,16.81,73416.5,3.45,2.77,2.77,0,*4A
1530320689.45,3575,16.81,73420.0,3.45,2.77,2.73,0,*4F
1530320690.7,3576,16.81,73420.3,3.49,2.77,2.81,0,*4D
1530320691.95,3577,16.81,73404.5,3.49,2.73,2.77,0,*41
1530320693.17,3578,16.81,73400.0,3.49,2.73,2.65,0,*4D
1530320694.42,3579,16.81,73392.5,3.49,2.73,2.77,0,*4F
1530320695.67,3580,16.81,73394.5,3.45,2.85,2.73,0,*48
1530320696.91,3581,16.81,73390.3,3.45,2.77,2.85,0,*4D
1530320698.11,3582,16.81,73392.8,3.45,2.61,2.61,0,*43
1530320699.35,3583,16.81,73388.5,3.45,2.59,2.61,0,*49
1530320700.6,3584,16.81,73390.3,3.45,2.59,2.59,0,*45
1530320701.85,3585,16.81,73406.0,3.45,2.59,2.59,0,*44
1530320703.07,3586,16.81,73398.3,3.43,2.69,2.59,0,*42
1530320704.3,3587,16.81,73390.3,3.45,2.69,2.61,0,*4E
1530320705.55,3588,16.81,73432.0,3.45,2.59,2.59,0,*49
1530320706.77,3589,16.81,73442.3,3.45,2.69,2.61,0,*40
1530320707.99,3590,16.81,73432.3,3.43,2.69,2.73,0,*4D
1530320709.24,3591,16.81,73430.8,3.45,2.77,2.77,0,*41
1530320710.49,3592,16.81,73442.8,3.45,2.73,2.73,0,*42
1530320711.73,3593,16.81,73450.0,3.45,2.73,2.73,0,*43
1530320712.92,3594,16.81,73392.3,3.43,2.61,2.69,0,*4A
1530320714.15,3595,16.81,73402.5,3.45,2.69,2.61,0,*4D
1530320715.37,3596,16.81,73414.5,3.45,2.61,2.69,0,*4E
1530320716.62,3597,16.81,73418.5,3.45,2.69,2.69,0,*47
1530320717.86,3598,16.81,73418.3,3.45,2.73,2.77,0,*4C
1530320719.08,3599,16.81,73418.5,3.43,2.77,2.77,0,*4F
1530320720.3,3600,16.81,73428.3,3.43,2.77,2.77,0,*4C
1530320721.55,3601,16.81,73416.0,3.45,2.77,2.77,0,*4B
1530320722.8,3602,16.75,73418.8,3.45,2.85,2.77,0,*45
1530320724.04,3603,16.81,73410.5,3.45,2.85,2.73,0,*40
1530320725.29,3604,16.81,73416.8,3.45,2.73,2.73,0,*4E
1530320726.53,3605,16.81,73406.3,3.45,2.73,2.77,0,*4B
1530320727.78,3606,16.81,73416.5,3.45,2.77,2.73,0,*48
1530320729.03,3607,16.81,73426.5,3.45,2.77,2.77,0,*4D
1530320730.27,3608,16.81,73436.0,3.45,2.73,2.77,0,*46
1530320731.5,3609,16.81,73406.0,3.45,2.69,2.61,0,*4B
1530320732.75,3610,16.81,73404.8,3.45,2.59,2.59,0,*4B
1530320733.97,3611,16.81,73394.0,3.43,2.69,2.69,0,*4C
1530320735.17,3612,16.81,73414.0,3.43,2.69,2.61,0,*47
1530320736.38,3613,16.81,73394.8,3.43,2.69,2.69,0,*4E
1530320737.63,3614,16.81,73400.3,3.45,2.73,2.73,0,*4F
1530320738.85,3615,16.81,73430.5,3.43,2.77,2.73,0,*4C
1530320740.07,3616,16.81,73446.3,3.43,2.77,2.73,0,*4F
1530320741.29,3617,16.81,73448.8,3.43,2.73,2.77,0,*4E
1530320742.51,3618,16.81,73454.3,3.43,2.69,2.73,0,*4E
1530320743.76,3619,16.81,73432.5,3.45,2.47,2.39,0,*4B
1530320745.01,3620,16.81,73424.5,3.45,2.25,2.13,0,*4D
1530320746.24,3621,16.81,73436.3,3.43,2.17,2.13,0,*4B
1530320747.5,3622,16.81,73422.5,3.45,2.17,2.13,0,*4E
1530320748.75,3623,16.81,73394.8,3.41,1.97,1.97,0,*4F
1530320750.0,3624,16.81,73390.8,3.41,2.13,2.13,0,*48
1530320751.2,3625,16.81,73384.8,3.41,2.31,2.31,0,*49
1530320752.45,3626,16.81,73364.3,3.41,2.55,2.55,0,*4A
1530320753.7,3627,16.81,73374.3,3.41,2.59,2.59,0,*4B
1530320754.91,3628,16.81,73366.8,3.39,2.59,2.65,0,*44
1530320756.12,3629,16.81,73338.3,3.41,2.65,2.65,0,*45
1530320757.29,3630,16.81,73350.5,3.39,2.65,2.65,0,*42
1530320758.5,3631,16.81,73402.3,3.41,2.65,2.65,0,*4C
1530320759.76,3632,16.81,73402.5,3.41,2.81,2.81,0,*4F
1530320761.02,3633,16.81,73378.3,3.41,2.81,2.81,0,*4E
1530320762.23,3634,16.81,73376.8,3.39,2.69,2.69,0,*46
1530320763.48,3635,16.81,73394.8,3.41,2.69,2.69,0,*48
1530320764.73,3636,16.81,73420.0,3.41,2.73,2.69,0,*40
1530320765.94,3637,16.81,73436.0,3.39,2.69,2.69,0,*45
1530320767.16,3638,16.81,73426.0,3.43,2.73,2.73,0,*47
1530320768.38,3639,16.81,73410.0,3.43,2.77,2.77,0,*46
1530320769.6,3640,16.75,73406.0,3.43,2.73,2.73,0,*48
1530320770.85,3641,16.81,73448.0,3.41,2.69,2.81,0,*4D
1530320772.07,3642,16.81,73424.8,3.43,2.73,2.73,0,*4A
1530320773.29,3643,16.81,73404.0,3.43,2.73,2.73,0,*4B
1530320774.51,3644,16.81,73396.5,3.43,2.73,2.73,0,*4C
1530320775.68,3645,16.81,73398.0,3.43,2.61,2.61,0,*4D
1530320776.89,3646,16.81,73414.8,3.43,2.59,2.61,0,*45
1530320778.11,3647,16.81,73420.5,3.43,2.69,2.69,0,*4F
1530320779.36,3648,16.81,73420.8,3.41,2.81,2.81,0,*42
1530320780.61,3649,16.81,73424.5,3.41,2.69,2.73,0,*48
1530320781.83,3650,16.75,73440.3,3.43,2.77,2.73,0,*4D
1530320783.08,3651,16.81,73434.5,3.41,2.69,2.69,0,*4A
1530320784.31,3652,16.81,73418.0,3.41,2.69,2.65,0,*45
1530320785.53,3653,16.81,73412.5,3.39,2.47,2.43,0,*43
1530320786.78,3654,16.81,73414.5,3.41,2.55,2.55,0,*4F
1530320788.01,3655,16.81,73418.5,3.41,2.69,2.65,0,*42
1530320789.27,3656,16.81,73426.8,3.41,2.81,2.81,0,*4D
1530320790.51,3657,16.81,73420.0,3.41,2.69,2.69,0,*4C
1530320791.76,3658,16.81,73416.8,3.41,2.69,2.73,0,*48
1530320793.01,3659,16.81,73412.5,3.41,2.69,2.69,0,*42
1530320794.26,3660,16.81,73410.3,3.41,2.81,2.73,0,*45
1530320795.51,3661,16.81,73400.0,3.41,2.85,2.81,0,*4D
1530320796.74,3662,16.81,73398.0,3.43,2.77,2.77,0,*48
1530320797.96,3663,16.81,73396.5,3.43,2.77,2.77,0,*49
1530320799.2,3664,16.81,73414.0,3.45,2.77,2.85,0,*45
1530320800.42,3665,16.81,73396.3,3.43,2.73,2.73,0,*4F
1530320801.64,3666,16.81,73396.8,3.43,2.73,2.73,0,*4C
1530320802.86,3667,16.81,73396.3,3.43,2.73,2.73,0,*4D
1530320804.08,3668,16.81,73392.8,3.43,2.77,2.77,0,*42
1530320805.29,3669,16.81,73400.3,3.43,2.77,2.85,0,*4E
1530320806.51,3670,16.81,73418.3,3.43,2.85,2.85,0,*4B
1530320807.76,3671,16.81,73414.8,3.45,2.89,2.89,0,*4C
1530320808.98,3672,16.81,73398.0,3.43,2.85,2.85,0,*49
1530320810.22,3673,16.81,73412.8,3.45,2.77,2.73,0,*4A
1530320811.44,3674,16.81,73418.3,3.43,2.77,2.77,0,*4F
1530320812.67,3675,16.81,73420.0,3.43,2.89,2.89,0,*4E
1530320813.91,3676,16.81,73400.0,3.45,2.89,2.85,0,*47
1530320815.13,3677,16.81,73398.8,3.43,2.85,2.77,0,*41
1530320816.35,3678,16.81,73406.3,3.43,2.73,2.73,0,*43
1530320817.57,3679,16.81,73404.3,3.43,2.77,2.85,0,*4F
1530320818.78,3680,16.75,73384.5,3.43,2.73,2.77,0,*40
1530320820.0,3681,16.81,73398.5,3.43,2.73,2.73,0,*45
1530320821.25,3682,16.81,73390.3,3.45,2.77,2.73,0,*44
1530320822.49,3683,16.81,73382.8,3.45,2.73,2.73,0,*41
1530320823.71,3684,16.81,73386.3,3.43,2.85,2.77,0,*4D
1530320824.93,3685,16.81,73400.0,3.43,2.85,2.77,0,*4C
1530320826.15,3686,16.75,73406.3,3.43,2.85,2.77,0,*4F
1530320827.4,3687,16.81,73400.5,3.45,2.73,2.77,0,*41
1530320828.62,3688,16.81,73398.3,3.43,2.77,2.73,0,*48
1530320829.84,3689,16.81,73390.5,3.43,2.77,2.77,0,*4D
1530320831.09,3690,16.81,73388.8,3.45,2.89,2.89,0,*43
1530320832.34,3691,16.81,73378.0,3.45,2.85,2.89,0,*4E
1530320833.59,3692,16.81,73388.0,3.45,2.89,2.89,0,*41
1530320834.81,3693,16.81,73414.3,3.43,2.89,2.89,0,*46
1530320836.06,3694,16.81,73396.5,3.45,2.85,2.89,0,*4B
1530320837.3,3695,16.81,73404.3,3.45,2.85,2.85,0,*46
1530320838.55,3696,16.81,73396.3,3.45,2.89,2.89,0,*45
1530320839.8,3697,16.81,73400.0,3.45,2.89,2.89,0,*44
1530320841.02,3698,16.81,73382.0,3.43,2.89,2.85,0,*41
1530320842.26,3699,16.81,73386.3,3.45,2.89,2.85,0,*46
1530320843.51,3700,16.81,73424.5,3.45,2.85,2.89,0,*47
1530320844.76,3701,16.81,73436.8,3.45,2.89,2.85,0,*46
1530320845.96,3702,16.81,73432.5,3.49,2.91,2.91,0,*45
1530320847.19,3703,16.81,73422.5,3.49,2.99,3.03,0,*46
1530320848.43,3704,16.81,73422.8,3.45,2.89,2.89,0,*4F
1530320849.63,3705,16.81,73414.0,3.45,2.95,2.95,0,*4E
1530320850.88,3706,16.81,73410.5,3.49,2.89,2.89,0,*41
1530320852.14,3707,16.81,73404.8,3.49,2.89,2.89,0,*40
1530320853.39,3708,16.81,73410.3,3.45,2.89,2.89,0,*43
1530320854.63,3709,16.81,73398.0,3.45,2.77,2.77,0,*42
1530320855.88,3710,16.81,73386.3,3.45,2.85,2.85,0,*4A
1530320857.13,3711,16.81,73384.0,3.45,2.89,2.89,0,*4B
1530320858.34,3712,16.75,73416.5,3.45,2.89,2.95,0,*45
1530320859.55,3713,16.81,73388.3,3.49,2.99,2.99,0,*45
1530320860.8,3714,16.81,73366.5,3.49,2.81,2.81,0,*42
1530320862.06,3715,16.81,73384.8,3.49,2.81,2.81,0,*43
1530320863.31,3716,16.81,73374.3,3.49,2.89,2.89,0,*40
1530320864.57,3717,16.81,73430.0,3.49,2.81,2.81,0,*41
1530320865.82,3718,16.81,73424.3,3.49,2.89,2.89,0,*4E
1530320867.05,3719,16.81,73402.8,3.49,2.89,2.91,0,*46
1530320868.25,3720,16.81,73408.3,3.49,2.91,2.91,0,*45
1530320869.45,3721,16.81,73398.0,3.49,2.91,2.99,0,*4C
1530320870.65,3722,16.81,73380.5,3.49,2.91,2.91,0,*47
1530320871.83,3723,16.75,73400.8,3.51,2.95,2.95,0,*4F
1530320873.03,3724,16.75,73398.0,3.49,2.91,2.99,0,*49
1530320874.23,3725,16.81,73400.3,3.49,2.91,2.91,0,*40
1530320875.41,3726,16.81,73376.5,3.51,2.95,2.91,0,*4E
1530320876.66,3727,16.81,73366.3,3.49,2.81,2.81,0,*42
1530320877.89,3728,16.81,73366.5,3.51,2.81,2.85,0,*40
1530320879.14,3729,16.81,73400.3,3.49,2.81,2.81,0,*4C
1530320880.4,3730,16.81,73404.3,3.49,2.81,2.89,0,*4C
1530320881.65,3731,16.75,73394.3,3.49,2.89,2.81,0,*4D
1530320882.83,3732,16.81,73396.0,3.51,2.91,2.91,0,*4F
1530320884.08,3733,16.81,73376.8,3.49,2.77,2.77,0,*47
1530320885.33,3734,16.81,73386.0,3.49,2.77,2.81,0,*49
1530320886.55,3735,16.81,73390.3,3.51,2.85,2.85,0,*48
1530320887.81,3736,16.81,73382.8,3.49,2.81,2.81,0,*42
1530320889.03,3737,16.81,73382.8,3.49,2.89,2.91,0,*4A
1530320890.27,3738,16.81,73382.5,3.49,2.91,2.89,0,*45
1530320891.49,3739,16.81,73396.0,3.49,2.89,2.99,0,*4C
1530320892.75,3740,16.81,73388.3,3.49,2.81,2.89,0,*4B
1530320894.0,3741,16.81,73372.0,3.49,2.81,2.89,0,*4A
1530320895.25,3742,16.81,73386.5,3.49,2.77,2.77,0,*41
1530320896.48,3743,16.81,73396.0,3.49,2.81,2.91,0,*41
1530320897.65,3744,16.81,73404.8,3.51,2.95,2.95,0,*4E
1530320898.85,3745,16.75,73404.8,3.51,3.03,2.95,0,*41
1530320900.08,3746,16.81,73426.5,3.53,3.03,2.95,0,*40
1530320901.31,3747,16.81,73420.5,3.51,3.03,3.07,0,*49
1530320902.54,3748,16.81,73416.0,3.51,3.03,3.03,0,*42
1530320903.74,3749,16.81,73402.5,3.51,3.03,2.95,0,*4D
1530320904.96,3750,16.81,73416.8,3.49,2.89,2.91,0,*4B
1530320906.17,3751,16.81,73428.0,3.49,2.91,2.91,0,*43
1530320907.37,3752,16.81,73438.3,3.49,2.99,2.99,0,*40
1530320908.6,3753,16.81,73434.0,3.51,3.03,3.03,0,*48
1530320909.77,3754,16.81,73426.3,3.51,2.95,2.95,0,*4F
1530320911.02,3755,16.81,73386.8,3.53,2.85,2.85,0,*4C
1530320912.19,3756,16.81,73390.3,3.51,2.95,2.95,0,*4D
1530320913.39,3757,16.81,73382.3,3.51,3.07,2.95,0,*46
1530320914.6,3758,16.81,73378.8,3.49,2.99,2.91,0,*42
1530320915.83,3759,16.81,73386.5,3.51,3.03,3.03,0,*42
1530320917.08,3760,16.81,73390.8,3.49,3.03,3.03,0,*41
1530320918.26,3761,16.81,73372.0,3.51,2.91,2.95,0,*4D
1530320919.43,3762,16.81,73382.3,3.51,2.95,2.91,0,*4E
1530320920.6,3763,16.81,73424.8,3.51,2.95,2.91,0,*4F
1530320921.85,3764,16.81,73404.8,3.53,2.81,2.85,0,*4A
1530320923.11,3765,16.81,73384.0,3.53,2.85,2.81,0,*4B
1530320924.31,3766,16.81,73396.5,3.53,2.95,2.91,0,*48
1530320925.53,3767,16.81,73380.8,3.53,2.95,3.03,0,*43
1530320926.74,3768,16.81,73374.8,3.53,2.91,2.95,0,*46
1530320927.94,3769,16.81,73388.3,3.53,2.91,2.95,0,*47
1530320929.11,3770,16.81,73406.5,3.51,2.91,2.95,0,*4D
1530320930.32,3771,16.75,73404.8,3.49,2.91,2.91,0,*41
1530320931.52,3772,16.81,73408.8,3.53,2.95,2.95,0,*49
1530320932.72,3773,16.81,73414.8,3.51,2.95,3.03,0,*44
1530320933.95,3774,16.81,73434.3,3.51,3.03,3.07,0,*49
1530320935.15,3775,16.81,73440.5,3.51,3.03,2.95,0,*42
1530320936.37,3776,16.81,73432.8,3.51,2.85,2.81,0,*4B
1530320937.62,3777,16.81,73408.0,3.53,2.77,2.77,0,*4C
1530320938.85,3778,16.81,73396.5,3.51,2.77,2.69,0,*4E
1530320940.07,3779,16.81,73388.3,3.51,2.77,2.77,0,*40
1530320941.3,3780,16.81,73378.5,3.55,2.81,2.89,0,*4A
1530320942.55,3781,16.75,73374.3,3.53,2.81,2.81,0,*45
1530320943.81,3782,16.81,73408.3,3.53,2.81,2.81,0,*46
1530320945.03,3783,16.81,73408.5,3.51,2.85,2.85,0,*45
1530320946.28,3784,16.81,73416.3,3.53,2.85,2.81,0,*44
1530320947.54,3785,16.81,73426.5,3.53,2.81,2.81,0,*41